Weather History for Sharm El Sheikh, Egypt

Change the Weather History Date:

Wednesday, March 13, 2013

  Actual Average Record
Temperature  
Mean Temperature 80 °F -  
Max Temperature 95 °F - - ()
Min Temperature 66 °F - - ()
Cooling Degree Days 16    
Growing Degree Days 30 (Base 50)    
Moisture  
Dew Point 28 °F    
Average Humidity 16    
Maximum Humidity 33    
Minimum Humidity 8    
Precipitation  
Precipitation 0.00 in - - ()
Sea Level Pressure  
Sea Level Pressure 29.87 in    
Wind  
Wind Speed 3 mph ()    
Max Wind Speed 6 mph    
Max Gust Speed -    
Visibility 3.7 miles    
Events      
T = Trace of Precipitation, MM = Missing Value Source: Averaged Metar Reports

Daily Weather History Graph

Daily Weather History Graph

Search for Another Location

Airport:

Trip Planner

Search our weather history database for the weather conditions in past years. The results will help you decide how hot, cold, wet, or windy it might be!

Date:

Astronomy

Mar. 13, 2013 Rise Set
Actual Time 5:54 AM EET 5:49 PM EET
Civil Twilight 5:30 AM EET 6:13 PM EET
Nautical Twilight 5:03 AM EET 6:40 PM EET
Astronomical Twilight 4:36 AM EET 7:07 PM EET
Moon 6:33 AM EET (3/13) 7:31 PM EET (3/13)
Length of Visible Light 12h 42m
Length of Day
11h 55m
Waxing Crescent, 3% of the Moon is Illuminated
Mar 13
Waxing Crescent
Mar 19
First Quarter
Mar 27
Full
Apr 3
Last Quarter
Apr 10
New

Hourly Weather History & Observations

Time (EET) Temp. Dew Point Humidity Pressure Visibility Wind Dir Wind Speed Gust Speed Precip Events Conditions
12:00 AM 69.8 °F 39.2 °F 33% 29.92 in - North 2.3 mph - N/A   Clear
1:00 AM 69.8 °F 37.4 °F 31% 29.89 in - NNW 4.6 mph - N/A   Clear
2:00 AM 68.0 °F 32.0 °F 26% 29.89 in - Variable 3.5 mph - N/A   Clear
3:00 AM 69.8 °F 26.6 °F 20% 29.86 in - NNW 3.5 mph - N/A   Clear
4:00 AM 69.8 °F 24.8 °F 18% 29.86 in - NW 4.6 mph - N/A   Clear
5:00 AM 66.2 °F 23.0 °F 19% 29.86 in - NW 4.6 mph - N/A   Clear
6:00 AM 66.2 °F 23.0 °F 19% 29.86 in - NW 4.6 mph - N/A   Clear
7:00 AM 73.4 °F 24.8 °F 16% 29.89 in - WNW 2.3 mph - N/A   Clear
8:00 AM 82.4 °F 30.2 °F 15% 29.89 in 3.7 mi Calm Calm - N/A   Unknown
9:00 AM 89.6 °F 28.4 °F 11% 29.89 in 3.7 mi Calm Calm - N/A   Unknown
10:00 AM 95.0 °F 24.8 °F 8% 29.92 in 3.7 mi East 1.2 mph - N/A   Unknown
11:00 AM 95.0 °F 33.8 °F 12% 29.89 in 3.7 mi East 3.5 mph - N/A   Unknown
12:00 PM 93.2 °F 30.2 °F 11% 29.89 in 3.7 mi Variable 3.5 mph - N/A   Unknown
1:00 PM 93.2 °F 35.6 °F 13% 29.86 in 2.5 mi SSE 5.8 mph - N/A   Haze
2:00 PM 89.6 °F 35.6 °F 15% 29.86 in 2.5 mi South 5.8 mph - N/A   Haze
5:00 PM 86.0 °F 30.2 °F 13% 29.83 in 5.0 mi South 4.6 mph - N/A   Unknown
6:00 PM 84.2 °F 37.4 °F 19% 29.83 in 5.0 mi Variable 2.3 mph - N/A   Unknown
7:00 PM 78.8 °F 23.0 °F 13% 29.83 in - West 2.3 mph - N/A   Clear
8:00 PM 78.8 °F 19.4 °F 11% 29.83 in - WNW 3.5 mph - N/A   Clear
9:00 PM 77.0 °F 19.4 °F 12% 29.86 in - NW 4.6 mph - N/A   Clear
10:00 PM 77.0 °F 19.4 °F 12% 29.86 in - NW 5.8 mph - N/A   Clear
11:00 PM 75.2 °F 19.4 °F 12% 29.83 in - WNW 3.5 mph - N/A   Clear